TimeCST,TemperatureF,Dew PointF,Humidity,Sea Level PressureIn,VisibilityMPH,Wind Direction,Wind SpeedMPH,Gust SpeedMPH,PrecipitationIn,Events,Conditions,WindDirDegrees,DateUTC
12:53 AM,10.0,7.0,87,30.14,10.0,SW,5.8,-,N/A,,Clear,220,2013-01-05 06:53:00
1:53 AM,10.9,8.1,88,30.12,10.0,SW,3.5,-,N/A,,Clear,230,2013-01-05 07:53:00
2:53 AM,16.0,12.0,84,30.09,10.0,SSW,6.9,-,N/A,,Clear,200,2013-01-05 08:53:00
3:53 AM,12.9,10.9,92,30.10,10.0,SW,4.6,-,N/A,,Clear,230,2013-01-05 09:53:00
4:53 AM,12.0,10.0,92,30.10,10.0,SSW,6.9,-,N/A,,Clear,200,2013-01-05 10:53:00
5:53 AM,12.9,10.0,88,30.09,10.0,SSW,5.8,-,N/A,,Clear,210,2013-01-05 11:53:00
6:53 AM,10.9,8.1,88,30.09,10.0,SW,6.9,-,N/A,,Clear,220,2013-01-05 12:53:00
7:53 AM,5.0,1.9,87,30.13,10.0,WSW,8.1,-,N/A,,Clear,250,2013-01-05 13:53:00
8:53 AM,7.0,3.9,87,30.14,10.0,WSW,5.8,-,N/A,,Clear,240,2013-01-05 14:53:00
9:53 AM,12.9,8.1,81,30.14,10.0,West,5.8,-,N/A,,Clear,280,2013-01-05 15:53:00
10:53 AM,19.0,12.0,74,30.15,10.0,WNW,9.2,-,N/A,,Clear,290,2013-01-05 16:53:00
11:53 AM,26.6,17.6,69,30.04,10.0,NW,15.0,-,N/A,,Clear,310,2013-01-05 17:53:00
12:53 PM,32.0,23.0,69,30.12,10.0,NW,16.1,-,N/A,,Clear,310,2013-01-05 18:53:00
1:53 PM,37.0,26.1,65,30.10,10.0,NW,17.3,24.2,N/A,,Clear,320,2013-01-05 19:53:00
2:53 PM,37.9,27.0,65,30.11,10.0,NW,13.8,-,N/A,,Clear,310,2013-01-05 20:53:00
3:53 PM,36.0,27.0,70,30.14,10.0,WNW,10.4,-,N/A,,Clear,290,2013-01-05 21:53:00
4:53 PM,37.0,24.1,59,30.17,10.0,NW,18.4,-,N/A,,Clear,320,2013-01-05 22:53:00
5:53 PM,30.9,21.9,69,30.20,10.0,WNW,11.5,-,N/A,,Clear,300,2013-01-05 23:53:00
6:53 PM,30.0,21.0,69,30.23,10.0,WNW,13.8,-,N/A,,Clear,290,2013-01-06 00:53:00
7:53 PM,30.0,21.0,69,30.26,10.0,WNW,13.8,-,N/A,,Clear,290,2013-01-06 01:53:00
8:53 PM,26.1,19.0,75,30.28,10.0,NW,11.5,-,N/A,,Clear,310,2013-01-06 02:53:00
9:53 PM,28.9,19.0,67,30.28,10.0,NNW,17.3,-,N/A,,Clear,330,2013-01-06 03:53:00
10:53 PM,26.1,17.1,69,30.29,10.0,NW,16.1,-,N/A,,Clear,320,2013-01-06 04:53:00
11:53 PM,23.0,15.1,72,30.31,10.0,NW,11.5,-,N/A,,Clear,310,2013-01-06 05:53:00